Weather in Preobrazhenka

Russia / Orenburg Oblast     53°09′57″N   52°32′38″E
temp.,
°C
wind,
m/s
gust,
m/s
humid.,
%
clouds,
%
prec.,
mm/h
press.,
hPa
HPBL,
m
21 january, fri
fri2123:00−17sse229783 0.0 102336
02:00−17sse229997 0.1 102328
05:00−16sse229894 0.1 102328
08:00−16se229983 0.1 102328
11:00−16sse239992 0.1 102444
14:00−12sse259791 0.0 1024149
17:00−14se229977 0.1 102417
20:00−18se2210098 0.0 102435
22 january, sat
sat2223:00−14se3109894 0.1 1024174
02:00−13sse41196100 0.1 1024229
05:00−12sse41195100 0.2 1024258
08:00−12se51195100 0.0 1024249
11:00−11se61295100 0.1 1025288
14:00−10sse51295100 0.0 1025330
17:00−9sse51194100 0.1 1026312
20:00−10sse51192100 0.0 1027242
23 january, sun
sun2323:00−10se51189100 0.0 1027248
02:00−11se3988100 0.0 1029212
05:00−14se3888100 0.0 1030140
08:00−14se3985100 0.0 1031157
11:00−12se41081100 0.0 1033199
14:00−10se4881100 0.0 1034215
17:00−10se3785100 0.0 1035186
20:00−12ese3885100 0.0 1037148
24 january, mon
mon2423:00−12ese4986100 0.0 1037155
02:00−13se3985100 0.0 1039140
05:00−12ese41084100 0.0 1039176
08:00−14ese31086100 0.0 1039140
11:00−14ese3108476 0.0 1040183
14:00−11se4981100 0.0 1040234
17:00−12ese3984100 0.0 1040158
20:00−15ese2885100 0.0 1040126
25 january, tue
tue2523:00−17e228998 0.0 104012
02:00−19se2289100 0.0 103913
05:00−19ese1189100 0.0 103910
08:00−19ese1188100 0.0 10389
11:00−17se2288100 0.0 103818
14:00−12sse2482100 0.0 103798
17:00−14sse2290100 0.0 103712
20:00−18se229196 0.0 10379